Location: Newark
(9.4667°S, 159.8167°E)
Time: 20:54:13
(UTC+00:00)

Vanguard 1 - Pass Details

Date: 22 November 2019
Orbit: 652 x 3831 km, 34.2° (Epoch: 05 December)

Event Time Altitude Azimuth Distance (km) Brightness Sun altitude
Rises 14:16:36 0° 234° (SW) 6,271 14.2 -55.8°
Reaches altitude 10° 14:20:55 10° 225° (SW) 5,662 14.0 -55.2°
Maximum altitude 14:38:12 37° 161° (SSE) 4,814 13.6 -52.8°
Drops below altitude 10° 14:59:03 10° 100° (E) 6,788 14.7 -49.5°
Sets 15:04:49 0° 92° (E) 7,585 15.0 -48.5°
